Погода в Селе Березичского Стеклозавода

Россия / Калужская область     53°57′45″N   35°49′59″E
темп.,
°C
ветер,
м/с
пор.,
м/с
влажн.,
%
обл.,
%
осадки,
мм/ч
давл.,
гПа
погр.,
м
12 апреля, пн
пн1200:00+6в2270100 0.0 103127
03:00+5всв2374100 0.0 103146
06:00+4всв31179100 0.0 1031226
09:00+8в51454100 0.0 1030539
12:00+10в5968100 0.0 1028611
15:00+13в5766100 0.0 1027646
18:00+13в4975100 0.0 1026586
21:00+10в41188100 0.0 1025275
13 апреля, вт
вт1300:00+10вюв41287100 0.0 1024253
03:00+8юв3118526 0.0 1024194
06:00+7юв3889100 0.0 1024131
09:00+13ююв4867100 0.0 1024298
12:00+17ююв5850100 0.0 1023785
15:00+19ююв584087 0.0 10221559
18:00+17юв485088 0.0 1021324
21:00+12вюв39661 0.0 1022149
14 апреля, ср
ср1400:00+10юв38715 0.0 1022121
03:00+9вюв237970 0.0 102132
06:00+8юв36815 0.0 1020102
09:00+13ююв366648 0.0 1020338
12:00+17ююв474548 0.0 10191045
15:00+19ююв5732100 0.0 10171856
18:00+16юв365298 0.0 1016146
21:00+12юв3962100 0.0 1017166
15 апреля, чт
чт1500:00+11зюз2386100 0.0 101762
03:00+10вюв2292100 0.0 101720
06:00+9ююв2292100 0.0 101734
09:00+13ю237596 0.0 1017294
12:00+16ююв2357100 0.0 1017869
15:00+17вюв1249100 0.6 10151201
18:00+16в2359100 0.0 101478
21:00+12всв2365100 0.0 101444
16 апреля, пт
пт1600:00+11св356699 0.0 101489
03:00+9св3474100 0.1 101370
06:00+9св3678100 0.1 1013136
09:00+13всв4968100 0.1 1013559
12:00+11св51076100 0.1 1015567
15:00+14св5969100 0.6 1015794
18:00+12св81578100 1.2 1016857
21:00+8св71681100 1.2 1019789